• In Netherlands
  • List of Countries
  • For 7 days
  • Water Temperature
  • Satellite Maps
  • Weather Map
  • Weather Widgets
  • user-avatar
    Login

    Hourly Weather Corozal

    Today, 23 November, Thursday

    Time Temperature Precipitation Wind Pressure Humidity
    00:00 +21°C° 0.1 mm 2 mps 760 mmHg 97%
    01:00 +21°C° 0 mm 2 mps 760 mmHg 97%
    02:00 +21°C° 0 mm 2 mps 760 mmHg 98%
    03:00 +21°C° 0 mm 2 mps 759 mmHg 98%
    04:00 +21°C° 0 mm 2 mps 760 mmHg 98%
    05:00 +21°C° 0 mm 2 mps 760 mmHg 98%
    06:00 +20°C° 0 mm 2 mps 760 mmHg 98%
    07:00 +22°C° 0 mm 3 mps 760 mmHg 92%
    08:00 +24°C° 0 mm 3 mps 761 mmHg 87%
    09:00 +25°C° 0 mm 3 mps 761 mmHg 81%
    10:00 +26°C° 0 mm 3 mps 761 mmHg 76%
    11:00 +27°C° 0 mm 3 mps 760 mmHg 70%
    12:00 +28°C° 0 mm 3 mps 760 mmHg 64%
    13:00 +29°C° 0 mm 3 mps 759 mmHg 62%
    14:00 +30°C° 0 mm 3 mps 759 mmHg 60%
    15:00 +30°C° 0 mm 2 mps 758 mmHg 58%
    16:00 +28°C° 0 mm 2 mps 758 mmHg 63%
    17:00 +27°C° 0 mm 2 mps 759 mmHg 69%
    18:00 +25°C° 0 mm 2 mps 759 mmHg 75%
    19:00 +25°C° 0 mm 3 mps 760 mmHg 77%
    20:00 +24°C° 0 mm 3 mps 760 mmHg 80%
    21:00 +22°C° 0 mm 3 mps 761 mmHg 82%
    22:00 +22°C° 0 mm 3 mps 761 mmHg 86%
    23:00 +21°C° 0 mm 3 mps 761 mmHg 89%

    Tomorrow, 24 November, Friday

    Time Temperature Precipitation Wind Pressure Humidity
    00:00 +20°C° 0 mm 3 mps 761 mmHg 92%
    01:00 +20°C° 0 mm 2 mps 761 mmHg 94%
    02:00 +19°C° 0 mm 2 mps 760 mmHg 96%
    03:00 +19°C° 0 mm 2 mps 760 mmHg 98%
    04:00 +19°C° 0 mm 2 mps 760 mmHg 98%
    05:00 +18°C° 0 mm 2 mps 761 mmHg 98%
    06:00 +18°C° 0 mm 2 mps 761 mmHg 98%
    07:00 +20°C° 0 mm 2 mps 761 mmHg 89%
    08:00 +23°C° 0 mm 2 mps 762 mmHg 79%
    09:00 +25°C° 0 mm 2 mps 762 mmHg 70%
    10:00 +26°C° 0 mm 2 mps 762 mmHg 64%
    11:00 +28°C° 0 mm 2 mps 762 mmHg 57%
    12:00 +29°C° 0 mm 2 mps 761 mmHg 51%
    13:00 +29°C° 0 mm 2 mps 761 mmHg 50%
    14:00 +30°C° 0 mm 2 mps 760 mmHg 50%
    15:00 +30°C° 0 mm 2 mps 759 mmHg 49%
    16:00 +28°C° 0 mm 2 mps 760 mmHg 56%
    17:00 +26°C° 0 mm 1 mps 760 mmHg 64%
    18:00 +24°C° 0 mm 1 mps 760 mmHg 72%
    19:00 +23°C° 0 mm 1 mps 761 mmHg 74%
    20:00 +22°C° 0 mm 1 mps 761 mmHg 77%
    21:00 +22°C° 0 mm 1 mps 762 mmHg 79%
    22:00 +21°C° 0 mm 1 mps 762 mmHg 81%
    23:00 +21°C° 0 mm 1 mps 762 mmHg 82%

    Day after tomorrow, 25 November, Saturday

    Time Temperature Precipitation Wind Pressure Humidity
    00:00 +20°C° 0 mm 1 mps 762 mmHg 84%
    01:00 +19°C° 0 mm 2 mps 762 mmHg 85%
    02:00 +18°C° 0 mm 2 mps 761 mmHg 87%
    03:00 +18°C° 0 mm 2 mps 761 mmHg 88%
    04:00 +17°C° 0 mm 2 mps 761 mmHg 89%
    05:00 +17°C° 0 mm 2 mps 762 mmHg 89%
    06:00 +17°C° 0 mm 2 mps 762 mmHg 90%
    07:00 +20°C° 0 mm 1 mps 762 mmHg 80%
    08:00 +23°C° 0 mm 1 mps 763 mmHg 71%
    09:00 +25°C° 0 mm 1 mps 763 mmHg 62%
    10:00 +27°C° 0 mm 1 mps 763 mmHg 57%
    11:00 +29°C° 0 mm 1 mps 762 mmHg 53%
    12:00 +31°C° 0 mm 1 mps 761 mmHg 48%
    13:00 +31°C° 0 mm 1 mps 761 mmHg 48%
    14:00 +31°C° 0 mm 1 mps 760 mmHg 48%
    15:00 +29°C° 0 mm 0 mps 759 mmHg 48%
    16:00 +28°C° 0 mm 1 mps 760 mmHg 56%
    17:00 +26°C° 0 mm 1 mps 760 mmHg 64%
    18:00 +24°C° 0 mm 1 mps 760 mmHg 72%
    19:00 +23°C° 0 mm 1 mps 761 mmHg 75%
    20:00 +23°C° 0 mm 1 mps 761 mmHg 78%
    21:00 +22°C° 0 mm 1 mps 762 mmHg 81%
    22:00 +21°C° 0 mm 1 mps 762 mmHg 83%
    23:00 +21°C° 0 mm 1 mps 762 mmHg 85%

    26 November, Sunday

    Time Temperature Precipitation Wind Pressure Humidity
    00:00 +21°C° 0 mm 1 mps 762 mmHg 86%
    01:00 +20°C° 0 mm 1 mps 762 mmHg 87%
    02:00 +18°C° 0 mm 2 mps 761 mmHg 87%
    03:00 +18°C° 0 mm 2 mps 761 mmHg 87%
    04:00 +17°C° 0 mm 2 mps 762 mmHg 88%
    05:00 +17°C° 0 mm 2 mps 762 mmHg 89%
    06:00 +17°C° 0 mm 2 mps 762 mmHg 89%
    07:00 +19°C° 0 mm 2 mps 763 mmHg 81%
    08:00 +21°C° 0 mm 2 mps 763 mmHg 73%
    09:00 +24°C° 0 mm 2 mps 764 mmHg 65%
    10:00 +26°C° 0 mm 2 mps 763 mmHg 60%
    11:00 +28°C° 0 mm 2 mps 762 mmHg 54%
    12:00 +30°C° 0 mm 1 mps 762 mmHg 49%
    13:00 +30°C° 0 mm 2 mps 761 mmHg 48%
    14:00 +30°C° 0 mm 2 mps 761 mmHg 47%
    15:00 +30°C° 0 mm 2 mps 760 mmHg 46%
    16:00 +28°C° 0 mm 1 mps 760 mmHg 54%
    17:00 +25°C° 0 mm 1 mps 760 mmHg 61%
    18:00 +23°C° 0 mm 1 mps 761 mmHg 69%
    19:00 +23°C° 0 mm 2 mps 761 mmHg 72%
    20:00 +21°C° 0 mm 2 mps 762 mmHg 74%
    21:00 +20°C° 0 mm 2 mps 762 mmHg 77%
    22:00 +19°C° 0 mm 2 mps 762 mmHg 80%
    23:00 +19°C° 0 mm 2 mps 762 mmHg 83%

    27 November, Monday

    Time Temperature Precipitation Wind Pressure Humidity
    00:00 +18°C° 0 mm 2 mps 762 mmHg 86%
    01:00 +18°C° 0 mm 2 mps 762 mmHg 88%
    02:00 +17°C° 0 mm 2 mps 762 mmHg 90%
    03:00 +17°C° 0 mm 2 mps 761 mmHg 92%
    04:00 +17°C° 0 mm 2 mps 762 mmHg 92%
    05:00 +17°C° 0 mm 2 mps 762 mmHg 91%
    06:00 +17°C° 0 mm 2 mps 762 mmHg 91%
    07:00 +19°C° 0 mm 2 mps 762 mmHg 84%
    08:00 +21°C° 0 mm 2 mps 763 mmHg 77%
    09:00 +25°C° 0 mm 2 mps 763 mmHg 69%
    10:00 +26°C° 0 mm 2 mps 762 mmHg 64%
    11:00 +28°C° 0 mm 2 mps 762 mmHg 60%
    12:00 +29°C° 0 mm 2 mps 761 mmHg 55%
    13:00 +29°C° 0.1 mm 2 mps 760 mmHg 57%
    14:00 +29°C° 0.1 mm 2 mps 760 mmHg 59%
    15:00 +28°C° 0.1 mm 2 mps 759 mmHg 61%
    16:00 +27°C° 0.1 mm 2 mps 759 mmHg 69%
    17:00 +25°C° 0.1 mm 2 mps 760 mmHg 77%
    18:00 +23°C° 0.1 mm 2 mps 760 mmHg 84%
    19:00 +23°C° 0.1 mm 2 mps 760 mmHg 86%
    20:00 +21°C° 0.1 mm 2 mps 761 mmHg 88%
    21:00 +21°C° 0.1 mm 2 mps 761 mmHg 90%
    22:00 +20°C° 0.3 mm 2 mps 761 mmHg 92%
    23:00 +20°C° 0.3 mm 2 mps 761 mmHg 93%

    28 November, Tuesday

    Time Temperature Precipitation Wind Pressure Humidity
    00:00 +20°C° 0.3 mm 2 mps 761 mmHg 95%
    01:00 +20°C° 0.1 mm 2 mps 760 mmHg 95%
    02:00 +20°C° 0.1 mm 2 mps 760 mmHg 95%
    03:00 +20°C° 0.1 mm 2 mps 760 mmHg 96%
    04:00 +20°C° 0.2 mm 2 mps 760 mmHg 96%
    05:00 +20°C° 0.2 mm 2 mps 760 mmHg 95%
    06:00 +19°C° 0.2 mm 2 mps 761 mmHg 95%
    07:00 +21°C° 0.2 mm 2 mps 761 mmHg 91%
    08:00 +23°C° 0.2 mm 2 mps 762 mmHg 86%
    09:00 +24°C° 0.2 mm 1 mps 762 mmHg 82%
    10:00 +25°C° 0.1 mm 1 mps 762 mmHg 79%
    11:00 +26°C° 0.1 mm 1 mps 761 mmHg 76%
    12:00 +27°C° 0.1 mm 1 mps 761 mmHg 74%
    13:00 +27°C° 0.1 mm 2 mps 760 mmHg 71%
    14:00 +28°C° 0.1 mm 2 mps 760 mmHg 67%
    15:00 +29°C° 0.1 mm 2 mps 759 mmHg 64%
    16:00 +27°C° 0 mm 2 mps 760 mmHg 72%
    17:00 +25°C° 0 mm 2 mps 760 mmHg 81%
    18:00 +24°C° 0 mm 2 mps 760 mmHg 89%
    19:00 +23°C° 0 mm 2 mps 761 mmHg 91%
    20:00 +23°C° 0 mm 2 mps 761 mmHg 92%
    21:00 +23°C° 0 mm 2 mps 761 mmHg 94%
    22:00 +21°C° 0.1 mm 2 mps 761 mmHg 95%
    23:00 +21°C° 0.1 mm 2 mps 761 mmHg 96%
    Show more